Wind_Speed
15 16 17 20 25 29 30 31 36 36 37 39 39 35 31 25 29 29 29 25 23 21 18 25 34 34 21 18 18 20 20 20 19 10 10 7 11 12 11 6 5 4 5 8 12
18 18 18 18 20 24 29 31 31 35 36 37 42 41 36 32 27 33 28 27 25 24 26 29 29 38 30 22 21 22 21 20 18 14 12 8 10 14 12 7 5 5 3 5 10
21 21 21 20 19 20 24 27 30 31 32 35 36 38 39 38 33 33 31 26 26 26 24 27 28 37 46 34 25 25 23 20 18 15 10 14 13 13 12 9 6 4 5 4 8
22 23 23 22 21 20 19 22 26 29 28 32 36 37 36 36 27 32 29 30 25 29 27 24 28 33 47 41 33 25 25 21 21 18 16 13 19 13 14 11 7 7 9 7 7
21 23 25 25 24 23 20 19 20 24 27 27 31 37 37 35 38 18 25 28 29 27 30 29 31 36 45 46 35 30 26 24 22 23 17 14 19 18 16 15 12 11 11 9 8
21 21 23 25 26 25 22 20 19 19 22 25 28 33 36 36 31 37 30 21 29 24 27 31 32 34 39 46 41 38 29 26 23 21 25 18 18 24 20 16 14 13 11 11 9
17 19 20 22 24 25 24 21 18 16 17 21 23 26 32 35 32 33 29 27 23 19 20 25 30 33 38 33 41 42 40 28 27 24 22 26 21 25 21 17 15 14 13 12 12
13 14 17 19 21 23 23 21 18 16 16 18 21 21 28 28 35 32 38 35 29 24 22 23 26 25 31 36 31 39 44 36 35 28 23 23 26 23 23 20 15 14 14 13 13
13 14 13 16 18 21 22 21 19 16 17 19 23 21 22 25 29 28 30 33 32 30 25 24 28 25 27 29 26 41 29 42 34 33 24 22 22 27 26 23 19 17 16 15 15
13 13 13 15 18 19 22 21 20 17 19 20 24 16 19 25 22 23 27 25 32 30 25 22 24 26 28 33 27 28 45 30 40 41 36 29 24 28 29 28 23 21 19 17 16
16 13 14 15 19 19 21 21 21 20 22 26 20 29 5 18 22 22 20 28 33 29 25 26 34 32 31 28 35 31 33 37 39 32 38 36 31 28 26 31 28 25 22 19 18
14 13 12 14 17 18 20 20 19 17 18 23 23 27 22 18 20 23 25 22 31 37 29 27 27 32 21 21 30 32 29 36 32 32 33 33 39 33 30 30 32 27 25 22 21
13 12 11 13 14 17 17 17 17 17 14 23 27 19 29 20 22 27 29 27 25 28 38 33 19 28 23 22 27 35 33 38 34 32 31 28 34 40 29 31 31 29 28 26 26
13 11 10 9 12 14 15 18 17 13 8 14 26 26 24 22 27 26 29 32 21 29 28 30 34 32 25 29 28 25 31 32 32 34 23 27 8 35 40 35 36 31 30 30 30
11 9 9 9 10 13 14 17 17 14 1 9 20 29 20 23 19 25 32 31 25 23 33 23 20 32 25 31 33 25 23 31 33 27 21 24 14 19 29 28 29 34 30 29 29
11 10 9 7 9 10 12 16 20 10 5 9 13 28 26 18 20 23 28 27 27 27 28 23 15 21 27 26 27 31 22 27 31 24 8 18 27 16 36 31 28 33 23 25 29
10 8 7 8 7 7 12 19 16 7 6 7 13 26 30 24 19 21 35 35 22 26 29 23 23 29 26 25 26 29 25 5 3 6 3 15 18 19 19 42 31 25 32 24 35
10 8 7 7 5 3 7 16 3 8 9 3 17 21 24 30 23 23 17 29 27 26 21 20 13 31 26 31 20 28 32 9 6 5 4 13 9 6 19 10 17 40 24 24 25
9 7 6 5 4 5 3 6 3 4 6 4 9 22 25 27 22 23 26 25 21 15 15 14 9 26 31 31 26 28 23 13 6 5 5 8 6 9 17 13 13 15 35 48 36
8 7 4 3 4 6 5 2 2 9 4 6 4 16 21 30 26 21 20 25 30 19 17 12 8 23 27 27 25 25 27 10 5 4 2 5 6 8 24 17 17 17 13 12 8
8 6 3 4 6 9 6 5 10 6 5 1 6 2 12 29 31 28 17 16 34 28 24 13 9 19 28 20 27 23 23 7 7 4 4 4 5 13 21 23 22 20 19 12 15
5 4 4 4 7 9 6 9 7 5 4 2 5 9 9 21 35 32 28 23 25 30 30 20 6 12 17 13 28 27 20 14 6 4 2 2 3 19 22 20 27 21 22 26 26
2 3 4 5 3 4 5 8 7 8 3 4 2 8 10 11 17 32 28 29 19 24 22 24 12 7 11 11 21 27 23 23 9 6 4 2 3 19 27 25 25 25 27 26 23
2 2 4 5 7 8 6 7 5 6 7 3 7 10 12 11 8 20 26 23 21 26 26 25 15 11 10 7 22 25 23 23 18 7 5 1 23 27 28 29 31 28 25 21 18
2 3 5 12 12 7 5 7 4 3 5 3 4 7 7 6 9 15 19 27 25 29 24 23 13 18 14 8 13 24 27 22 18 18 10 11 17 29 29 27 25 21 18 17 16
2 2 8 12 11 6 4 2 3 4 2 6 6 4 13 8 6 14 18 24 23 29 31 17 14 17 13 13 16 12 15 27 32 21 19 12 23 30 27 22 20 18 16 15 15
4 6 8 9 7 4 2 1 2 2 5 8 11 9 11 17 15 9 11 19 17 23 34 31 14 18 10 9 8 9 22 23 29 29 22 20 23 30 30 26 20 17 17 18 19
Wind_Direction
234 239 243 240 234 232 229 226 228 229 231 230 229 232 230 226 224 224 221 220 224 226 219 198 209 219 218 229 241 238 228 225 230 241 210 247 252 249 240 243 247 227 205 180 184
239 237 240 242 240 235 232 229 225 226 224 227 229 235 235 225 228 228 224 222 223 224 220 225 216 217 214 224 237 235 227 226 229 234 211 241 252 257 253 276 245 241 223 181 176
245 238 237 240 242 240 235 232 227 226 223 221 224 227 229 235 232 231 226 227 227 223 227 221 225 208 214 221 228 229 231 220 222 213 216 235 240 251 255 267 261 251 238 214 181
248 242 238 237 240 241 238 236 232 227 223 219 219 224 225 225 229 236 232 228 224 226 230 225 217 215 212 218 225 232 233 230 218 222 226 228 228 243 249 262 250 239 228 220 190
248 242 238 236 236 238 237 239 234 230 224 220 218 222 223 225 221 226 228 228 226 223 225 224 220 213 214 218 226 235 230 232 229 225 223 225 229 233 246 254 252 240 231 220 194
250 241 236 233 233 235 236 235 234 230 226 218 218 220 221 224 222 225 228 223 229 226 221 222 224 221 221 221 232 232 234 231 232 227 232 235 230 227 233 246 252 240 227 223 207
244 244 237 232 229 231 233 235 232 225 221 218 216 220 223 218 218 211 216 217 216 214 217 226 226 226 225 226 228 233 234 232 232 226 232 235 230 223 231 240 241 236 225 219 216
252 237 234 233 227 226 226 230 230 219 213 213 208 218 229 221 219 217 215 220 223 221 219 227 237 235 222 229 238 227 231 226 233 230 224 233 231 223 231 234 240 238 231 222 219
241 233 228 229 226 221 220 223 225 216 208 206 201 216 225 220 218 217 217 219 223 225 226 223 239 234 226 216 222 216 215 218 231 234 226 231 235 222 231 234 236 239 236 228 217
242 228 227 225 223 219 213 217 223 218 209 201 195 207 224 219 219 215 219 218 218 221 225 222 222 219 221 220 219 209 218 226 233 237 233 231 231 223 229 232 236 236 234 230 223
244 229 230 227 216 216 211 215 220 220 213 206 199 203 187 207 202 200 210 212 208 208 219 222 221 218 212 223 225 237 227 231 232 238 239 239 230 223 229 236 232 229 228 225 225
236 224 227 218 211 209 211 216 218 229 226 220 209 216 220 200 199 193 197 208 209 204 204 200 212 221 215 233 226 222 229 227 226 227 236 237 229 229 231 240 237 229 224 217 214
212 216 212 207 210 208 210 213 213 220 231 223 217 220 212 227 220 197 196 202 213 209 211 222 229 221 230 237 228 238 217 226 230 223 224 230 233 226 227 220 222 219 215 212 215
199 197 199 199 204 203 203 201 201 211 234 235 218 220 215 225 209 198 197 198 196 204 213 225 229 235 248 230 221 221 224 218 210 215 215 224 246 219 224 227 219 208 212 213 216
180 177 171 188 197 211 207 198 191 180 347 223 215 208 199 202 201 196 194 207 216 201 202 211 213 223 224 225 218 227 215 215 210 211 209 204 218 201 200 192 202 207 212 219 218
163 161 168 188 196 201 197 196 200 165 247 205 203 206 213 203 195 190 197 199 205 206 216 214 198 199 205 217 219 222 213 209 208 212 228 215 208 222 214 196 197 190 194 198 192
159 160 174 194 214 219 205 200 172 200 202 195 202 204 217 211 194 191 192 195 188 196 211 189 197 200 202 199 198 213 184 130 159 184 213 198 210 229 216 208 196 209 202 212 204
161 169 173 204 226 228 231 182 141 190 192 226 200 206 205 215 214 207 195 189 201 208 173 175 188 185 200 191 188 194 187 167 177 184 140 161 210 226 184 169 222 217 212 230 195
151 160 165 203 245 236 81 95 103 144 187 211 173 187 204 214 214 212 215 220 212 176 190 192 180 192 183 194 191 186 192 171 106 98 115 186 211 171 189 186 186 184 213 230 238
151 165 175 185 222 188 165 166 105 90 109 195 212 183 193 206 209 210 210 224 215 207 211 185 185 191 187 192 193 195 198 174 149 139 161 210 214 176 188 184 183 174 186 211 216
156 155 175 187 170 170 208 201 166 99 62 171 231 173 185 196 201 209 212 215 215 219 205 200 189 189 187 194 197 189 190 158 178 199 159 134 236 205 195 203 213 220 196 200 205
161 176 181 171 179 219 226 175 159 131 73 308 204 219 184 175 200 207 205 203 211 210 210 212 205 186 182 178 192 194 190 183 192 192 166 130 164 181 179 188 199 200 181 188 188
180 185 179 167 153 174 168 189 192 158 135 71 178 194 189 190 174 197 200 205 206 213 214 221 217 170 198 201 186 199 198 185 180 177 167 108 130 154 168 171 178 181 178 184 195
218 171 142 149 126 110 155 168 163 162 155 117 115 164 171 171 180 177 194 200 199 195 194 191 208 216 210 208 198 198 187 202 209 203 211 351 156 158 166 171 173 178 183 194 209
255 206 161 149 138 109 107 114 145 128 136 161 105 75 152 149 175 173 189 195 197 191 185 189 203 212 212 193 209 225 216 206 211 219 221 218 196 177 175 176 178 185 195 210 226
305 161 152 151 150 131 117 83 52 88 124 123 137 69 112 152 162 171 192 195 192 201 202 194 215 216 225 231 237 238 221 229 225 219 217 208 191 185 188 191 199 203 213 233 253
126 124 135 151 158 172 172 156 132 102 91 109 109 115 124 111 111 121 186 190 203 202 208 217 216 204 213 220 224 245 239 223 214 215 207 203 205 200 202 205 211 225 238 252 267
Height
3071 3073 3073 3075 3077 3079 3081 3084 3087 3091 3095 3100 3106 3109 3114 3116 3119 3122 3127 3132 3135 3138 3141 3142 3149 3154 3159 3160 3161 3162 3165 3167 3168 3172 3174 3173 3174 3175 3176 3177 3177 3177 3177 3179 3181
3067 3068 3070 3071 3072 3075 3078 3079 3083 3086 3091 3095 3100 3103 3107 3111 3114 3118 3125 3129 3132 3136 3139 3142 3146 3151 3154 3156 3158 3160 3163 3166 3167 3170 3172 3172 3173 3174 3176 3176 3177 3178 3178 3179 3180
3064 3064 3066 3067 3068 3070 3072 3075 3078 3081 3085 3090 3094 3097 3101 3105 3111 3115 3120 3125 3128 3133 3136 3138 3141 3145 3149 3153 3156 3157 3160 3163 3166 3168 3170 3171 3172 3173 3175 3175 3177 3178 3178 3179 3181
3059 3060 3062 3063 3064 3066 3068 3070 3072 3076 3079 3084 3089 3092 3096 3101 3109 3110 3114 3120 3124 3128 3132 3134 3137 3139 3143 3149 3153 3154 3157 3161 3164 3167 3169 3169 3171 3173 3173 3176 3176 3177 3177 3179 3181
3054 3056 3058 3059 3060 3061 3063 3066 3069 3071 3075 3079 3084 3087 3090 3095 3101 3104 3108 3115 3120 3124 3127 3130 3134 3137 3141 3145 3150 3151 3156 3158 3161 3164 3166 3168 3169 3172 3173 3174 3176 3176 3177 3179 3181
3048 3049 3052 3055 3057 3058 3059 3062 3065 3068 3071 3076 3080 3082 3087 3091 3097 3100 3105 3110 3115 3119 3123 3126 3130 3135 3139 3142 3147 3149 3153 3157 3158 3161 3163 3166 3166 3170 3172 3173 3174 3176 3177 3178 3181
3043 3045 3046 3049 3053 3055 3056 3058 3061 3065 3068 3072 3076 3077 3080 3087 3090 3096 3101 3106 3110 3114 3117 3122 3127 3132 3134 3138 3141 3145 3150 3154 3154 3158 3161 3163 3164 3166 3170 3171 3173 3175 3176 3178 3180
3039 3041 3043 3044 3048 3051 3054 3055 3058 3062 3065 3069 3073 3075 3076 3082 3086 3092 3097 3101 3106 3110 3115 3118 3122 3127 3129 3132 3137 3142 3146 3150 3151 3154 3157 3160 3161 3165 3167 3169 3171 3174 3175 3177 3179
3036 3038 3040 3041 3044 3048 3051 3054 3056 3061 3064 3067 3070 3071 3074 3077 3079 3086 3092 3097 3102 3107 3111 3114 3119 3122 3125 3128 3132 3133 3136 3141 3147 3148 3153 3157 3158 3161 3163 3167 3169 3172 3174 3175 3178
3033 3035 3037 3039 3041 3044 3048 3051 3054 3058 3061 3065 3067 3073 3069 3072 3077 3083 3087 3091 3097 3102 3107 3111 3114 3117 3119 3122 3122 3124 3132 3135 3141 3145 3148 3152 3154 3157 3160 3163 3167 3169 3172 3174 3176
3030 3032 3034 3036 3038 3041 3045 3049 3053 3056 3056 3059 3061 3064 3065 3070 3074 3078 3084 3089 3092 3097 3102 3105 3109 3108 3116 3118 3122 3125 3130 3134 3138 3141 3145 3147 3152 3154 3156 3160 3163 3166 3168 3171 3175
3027 3029 3032 3034 3036 3039 3042 3045 3050 3053 3055 3056 3059 3061 3064 3068 3071 3077 3082 3085 3087 3092 3096 3100 3100 3107 3113 3116 3118 3120 3125 3128 3133 3136 3140 3142 3147 3150 3151 3157 3160 3163 3165 3168 3171
3025 3028 3030 3032 3035 3037 3041 3044 3048 3050 3052 3053 3057 3059 3063 3065 3068 3072 3077 3080 3085 3090 3093 3096 3099 3105 3109 3113 3115 3116 3118 3123 3128 3132 3136 3138 3142 3143 3150 3153 3155 3158 3159 3162 3165
3025 3027 3030 3032 3036 3036 3039 3042 3046 3049 3051 3051 3051 3055 3059 3061 3065 3069 3074 3081 3082 3086 3091 3095 3097 3102 3105 3110 3113 3114 3116 3121 3124 3130 3132 3135 3137 3137 3143 3147 3151 3150 3154 3157 3160
3026 3029 3030 3032 3034 3036 3040 3042 3045 3048 3052 3049 3049 3052 3056 3059 3061 3064 3070 3075 3078 3082 3089 3088 3090 3097 3101 3103 3110 3109 3114 3119 3122 3126 3125 3129 3135 3131 3137 3139 3142 3143 3148 3151 3153
3027 3029 3031 3032 3033 3035 3038 3041 3045 3049 3046 3044 3044 3048 3053 3056 3059 3063 3067 3071 3076 3080 3083 3087 3089 3095 3097 3101 3106 3107 3113 3116 3119 3122 3124 3122 3129 3126 3130 3134 3138 3137 3142 3146 3145
3027 3029 3031 3032 3033 3033 3036 3040 3041 3041 3042 3042 3042 3045 3049 3053 3057 3060 3063 3068 3073 3078 3081 3083 3086 3090 3094 3097 3101 3103 3109 3114 3120 3120 3117 3119 3126 3121 3124 3128 3131 3136 3134 3139 3136
3028 3030 3031 3031 3032 3032 3033 3035 3034 3036 3037 3038 3039 3042 3047 3050 3053 3056 3058 3064 3070 3072 3075 3078 3085 3085 3089 3091 3091 3099 3103 3105 3110 3112 3114 3117 3117 3116 3122 3124 3126 3131 3131 3134 3131
3029 3030 3032 3032 3031 3032 3032 3032 3034 3035 3037 3037 3037 3041 3045 3048 3053 3055 3058 3062 3066 3068 3073 3075 3079 3082 3085 3089 3093 3096 3100 3102 3105 3107 3109 3114 3115 3114 3117 3120 3122 3123 3126 3128 3130
3030 3031 3033 3033 3032 3033 3034 3033 3035 3036 3036 3037 3037 3039 3041 3046 3051 3054 3057 3059 3064 3067 3071 3074 3079 3081 3083 3086 3088 3094 3099 3101 3104 3109 3113 3111 3111 3108 3112 3116 3120 3122 3121 3123 3127
3032 3033 3033 3034 3034 3034 3035 3034 3035 3035 3037 3037 3037 3037 3039 3041 3048 3051 3055 3057 3060 3066 3071 3073 3076 3082 3082 3084 3086 3090 3091 3098 3102 3103 3104 3108 3107 3107 3111 3116 3118 3121 3122 3126 3130
3033 3034 3033 3034 3036 3034 3036 3036 3036 3035 3036 3036 3036 3037 3037 3039 3043 3049 3051 3055 3057 3065 3069 3074 3078 3079 3080 3081 3084 3087 3091 3095 3096 3101 3100 3101 3104 3104 3108 3114 3118 3120 3121 3124 3128
3035 3033 3033 3034 3034 3035 3035 3035 3036 3036 3037 3036 3036 3036 3036 3037 3041 3046 3048 3053 3057 3062 3068 3071 3076 3077 3080 3084 3081 3085 3089 3092 3096 3098 3100 3102 3106 3103 3108 3112 3118 3119 3121 3124 3129
3035 3034 3033 3034 3034 3035 3035 3036 3036 3037 3038 3037 3036 3035 3036 3036 3039 3040 3044 3051 3055 3061 3066 3069 3073 3074 3074 3075 3078 3082 3086 3091 3093 3098 3101 3100 3105 3108 3109 3112 3118 3119 3120 3124 3129
3035 3033 3033 3034 3035 3037 3037 3038 3038 3038 3038 3038 3036 3036 3036 3036 3038 3038 3043 3048 3054 3060 3064 3068 3069 3072 3074 3076 3078 3082 3085 3088 3092 3096 3101 3106 3107 3107 3112 3114 3117 3119 3120 3122 3125
3035 3034 3032 3034 3036 3038 3039 3038 3038 3039 3039 3039 3039 3038 3038 3038 3040 3041 3043 3047 3051 3057 3061 3065 3068 3070 3072 3074 3077 3079 3082 3084 3089 3094 3100 3103 3105 3108 3113 3114 3115 3117 3118 3120 3121
3036 3035 3035 3035 3037 3039 3039 3039 3039 3039 3040 3039 3039 3041 3041 3042 3042 3043 3044 3047 3050 3055 3059 3063 3066 3069 3072 3073 3076 3078 3076 3079 3085 3090 3096 3099 3104 3106 3107 3110 3113 3114 3115 3117 3117